Weather in Ryzhevo

Russia / Ivanovo Oblast     56°40′10″N   41°13′21″E
temp.,
°C
wind,
m/s
gust,
m/s
humid.,
%
clouds,
%
prec.,
mm/h
press.,
hPa
HPBL,
m
3 august, tue
tue300:00+21s414693 0.3 1004398
03:00+18ssw41293100 1.4 1005375
06:00+19ssw3995100 0.1 1005342
09:00+22wsw4770100 0.1 1006874
12:00+24wsw4652100 0.0 10081313
15:00+26sw5546100 0.0 10071871
18:00+22wnw375499 0.0 1008376
21:00+20wsw2661100 0.0 1010164
4 august, wed
wed400:00+19wsw276190 0.0 1010219
03:00+14w26780 0.0 1011110
06:00+15w27760 0.0 1013195
09:00+21wnw34510 0.0 1013946
12:00+24wnw343650 0.0 10132462
15:00+22w2645100 0.0 1013336
18:00+21wnw2749100 0.0 1014257
21:00+18nw2551100 0.0 1015113
5 august, thu
thu500:00+16nnw115679 0.0 101611
03:00+16nne2253100 0.0 101755
06:00+16sw1155100 0.0 101811
09:00+18ne0153100 0.0 1018179
12:00+18sse1155100 0.0 1018136
15:00+22sse1237100 0.0 10181240
18:00+21se234890 0.0 1017358
21:00+16se1162100 0.0 101711
6 august, fri
fri600:00+17e2353100 0.0 101774
03:00+13ne2292100 2.3 101748
06:00+12e3897100 5.8 1017264
09:00+13e3898100 15.0 1016262
12:00+14se41198100 7.9 1016432
15:00+14se51097100 15.0 1014323
18:00+14se41098100 10.1 1014304
21:00+14ene379897 11.1 1014255
7 august, sat
sat700:00+14e2499100 3.6 1014117
03:00+14ene3699100 4.8 1013184
06:00+14e3998100 0.5 1013256
09:00+15e41096100 0.5 1012307
12:00+17ene369299 0.0 1012225
15:00+21ene457499 0.3 1011341
18:00+20ne368851 0.8 1011258
21:00+16ene3109535 0.8 1011221